Trenton, NJ

8:59 PM EDT on August 24, 2016 (GMT -0400)
Trenton Mercer

Weather History for KTTN - April, 2013

Change the Weather History Date:

Wednesday, April 10, 2013

  Actual Average Record
Temperature  
Mean Temperature 73 °F 49 °F  
Max Temperature 87 °F 59 °F 87 °F (2013)
Min Temperature 59 °F 39 °F 20 °F (1985)
Degree Days  
Heating Degree Days 0 16  
Month to date heating degree days 150 172  
Since 1 July heating degree days 4536 4718  
Cooling Degree Days 8 0  
Month to date cooling degree days 14 0  
Year to date cooling degree days 14 0  
Growing Degree Days 22 (Base 50)    
Moisture  
Dew Point 54 °F    
Average Humidity 66    
Maximum Humidity 100    
Minimum Humidity 32    
Precipitation  
Precipitation 0.65 in 0.12 in 1.60 in (1983)
Month to date precipitation 0.65 1.33  
Year to date precipitation 7.86 10.94  
Sea Level Pressure  
Sea Level Pressure 29.85 in    
Wind  
Wind Speed 6 mph (South)    
Max Wind Speed 24 mph    
Max Gust Speed 33 mph    
Visibility 8 miles    
Events Rain , Thunderstorm    
T = Trace of Precipitation, MM = Missing Value Source: NWS Daily Summary

Daily Weather History Graph

Daily Weather History Graph

Search for Another Location

Airport or City:

Trip Planner

Search our weather history database for the weather conditions in past years. The results will help you decide how hot, cold, wet, or windy it might be!

Date:

Astronomy

Apr. 10, 2013 Rise Set
Actual Time 6:28 AM EDT 7:33 PM EDT
Civil Twilight 6:00 AM EDT 8:01 PM EDT
Nautical Twilight 5:27 AM EDT 8:34 PM EDT
Astronomical Twilight 4:52 AM EDT 9:09 PM EDT
Moon 6:23 AM EDT (4/10) 8:06 PM EDT (4/10)
Length of Visible Light 14h 00m
Length of Day
13h 04m
New Moon, 0% of the Moon is Illuminated
Apr 10
New Moon
Apr 18
First Quarter
Apr 25
Full
May 2
Last Quarter
May 9
New

Hourly Weather History & Observations

Time (EDT) Temp. Heat Index Dew Point Humidity Pressure Visibility Wind Dir Wind Speed Gust Speed Precip Events Conditions
12:53 AM 70.0 °F - 52.0 °F 53% 29.86 in 10.0 mi SW 10.4 mph - N/A   Clear
1:53 AM 68.0 °F - 52.0 °F 56% 29.84 in 10.0 mi WSW 9.2 mph - N/A   Clear
2:53 AM 68.0 °F - 52.0 °F 56% 29.83 in 10.0 mi West 3.5 mph - N/A   Clear
3:53 AM 66.9 °F - 52.0 °F 59% 29.83 in 10.0 mi West 4.6 mph - N/A   Clear
4:53 AM 66.0 °F - 52.0 °F 60% 29.84 in 10.0 mi WNW 3.5 mph - N/A   Clear
5:53 AM 64.9 °F - 51.1 °F 61% 29.86 in 10.0 mi Calm Calm - N/A   Clear
6:53 AM 63.0 °F - 51.1 °F 65% 29.89 in 10.0 mi Calm Calm - N/A   Clear
7:53 AM 66.0 °F - 52.0 °F 60% 29.90 in 10.0 mi Calm Calm - N/A   Overcast
8:53 AM 64.9 °F - 51.1 °F 61% 29.92 in 10.0 mi NE 5.8 mph - N/A   Overcast
9:53 AM 70.0 °F - 52.0 °F 53% 29.90 in 10.0 mi Calm Calm - N/A   Partly Cloudy
10:53 AM 73.0 °F - 53.1 °F 49% 29.90 in 10.0 mi SSW 3.5 mph - N/A   Clear
11:53 AM 78.1 °F - 54.0 °F 43% 29.88 in 10.0 mi Variable 4.6 mph - N/A   Clear
1:53 PM 84.9 °F 83.6 °F 55.0 °F 36% 29.84 in 10.0 mi WSW 8.1 mph - N/A   Scattered Clouds
3:53 PM 82.0 °F 81.3 °F 54.0 °F 38% 29.80 in 10.0 mi ESE 16.1 mph 20.7 mph N/A   Overcast
4:12 PM 75.2 °F - 51.8 °F 44% 29.82 in 10.0 mi ESE 15.0 mph - N/A   Overcast
4:53 PM 73.0 °F - 51.1 °F 46% 29.81 in 10.0 mi SE 15.0 mph - N/A   Partly Cloudy
5:53 PM 69.1 °F - 51.1 °F 53% 29.80 in 10.0 mi SSE 13.8 mph - N/A   Scattered Clouds
6:53 PM 64.9 °F - 48.9 °F 56% 29.79 in 10.0 mi SE 6.9 mph - N/A   Mostly Cloudy
7:53 PM 61.0 °F - 54.0 °F 78% 29.80 in 7.0 mi East 11.5 mph - 0.06 in Rain Light Rain
8:00 PM 60.8 °F - 53.6 °F 77% 29.81 in 10.0 mi ESE 11.5 mph - 0.00 in Rain Light Rain
8:33 PM 60.8 °F - 55.4 °F 82% 29.86 in 1.8 mi Variable 3.5 mph - 0.18 in Rain Heavy Rain
8:47 PM 59.0 °F - 55.4 °F 88% 29.83 in 3.0 mi South 13.8 mph - 0.30 in Rain , Thunderstorm Light Thunderstorms and Rain
8:53 PM 59.0 °F - 55.9 °F 90% 29.81 in 6.0 mi South 12.7 mph - 0.30 in Rain , Thunderstorm Light Thunderstorms and Rain
9:13 PM 59.0 °F - 55.4 °F 88% 29.82 in 8.0 mi Calm Calm - 0.00 in Thunderstorm Mostly Cloudy
9:34 PM 59.0 °F - 55.4 °F 88% 29.80 in 8.0 mi ENE 4.6 mph - 0.00 in   Partly Cloudy
9:43 PM 59.0 °F - 55.4 °F 88% 29.79 in 8.0 mi SE 5.8 mph - 0.00 in Rain , Thunderstorm Light Rain
9:53 PM 59.0 °F - 55.9 °F 90% 29.77 in 8.0 mi Calm Calm - 0.00 in   Partly Cloudy
10:18 PM 62.6 °F - 57.2 °F 82% 29.91 in 3.0 mi North 19.6 mph 26.5 mph 0.07 in Rain , Thunderstorm Heavy Rain
10:26 PM 62.6 °F - 57.2 °F 82% 29.92 in 2.0 mi NNW 5.8 mph 26.5 mph 0.14 in Rain , Thunderstorm Heavy Rain
10:33 PM 62.6 °F - 59.0 °F 88% 29.92 in 2.0 mi WNW 4.6 mph - 0.19 in Rain Heavy Rain
10:43 PM 62.6 °F - 59.0 °F 88% 29.92 in 5.0 mi NW 4.6 mph - 0.20 in Rain Light Rain
10:53 PM 62.1 °F - 59.0 °F 90% 29.90 in 6.0 mi NNW 3.5 mph - 0.20 in Rain Light Rain
11:53 PM 61.0 °F - 60.1 °F 97% 29.83 in 6.0 mi SSE 4.6 mph - 0.07 in Rain Light Rain